TimeCST,TemperatureF,Dew PointF,Humidity,Sea Level PressureIn,VisibilityMPH,Wind Direction,Wind SpeedMPH,Gust SpeedMPH,PrecipitationIn,Events,Conditions,WindDirDegrees,DateUTC
12:15 AM,39.2,28.4,65,29.61,10.0,South,6.9,-,N/A,,Clear,170,2013-02-18 06:15:00
12:35 AM,39.2,28.4,65,29.61,10.0,South,8.1,-,N/A,,Clear,170,2013-02-18 06:35:00
12:55 AM,39.2,28.4,65,29.60,10.0,South,5.8,-,N/A,,Clear,170,2013-02-18 06:55:00
1:15 AM,37.4,28.4,70,29.59,10.0,South,4.6,-,N/A,,Clear,180,2013-02-18 07:15:00
1:35 AM,37.4,28.4,70,29.59,10.0,Calm,Calm,-,N/A,,Clear,0,2013-02-18 07:35:00
1:55 AM,33.8,28.4,81,29.59,10.0,Calm,Calm,-,N/A,,Clear,0,2013-02-18 07:55:00
2:15 AM,37.4,30.2,75,29.62,10.0,WNW,8.1,21.9,N/A,,Clear,290,2013-02-18 08:15:00
2:35 AM,33.8,28.4,81,29.62,10.0,Calm,Calm,-,N/A,,Clear,0,2013-02-18 08:35:00
2:55 AM,32.0,28.4,87,29.61,10.0,Calm,Calm,-,N/A,,Clear,0,2013-02-18 08:55:00
3:15 AM,30.2,26.6,86,29.61,10.0,Calm,Calm,-,N/A,,Clear,0,2013-02-18 09:15:00
3:35 AM,28.4,24.8,86,29.60,10.0,Calm,Calm,-,N/A,,Clear,0,2013-02-18 09:35:00
3:55 AM,30.2,28.4,93,29.60,10.0,NNW,5.8,-,N/A,,Clear,330,2013-02-18 09:55:00
4:15 AM,28.4,26.6,93,29.59,10.0,NNE,3.5,-,N/A,,Clear,30,2013-02-18 10:15:00
4:35 AM,26.6,26.6,100,29.61,10.0,North,4.6,-,N/A,,Clear,350,2013-02-18 10:35:00
4:55 AM,28.4,26.6,93,29.62,10.0,Calm,Calm,-,N/A,,Clear,0,2013-02-18 10:55:00
5:15 AM,35.6,30.2,81,29.61,10.0,North,9.2,-,N/A,,Clear,350,2013-02-18 11:15:00
5:35 AM,35.6,30.2,81,29.60,10.0,NNW,16.1,-,N/A,,Clear,340,2013-02-18 11:35:00
6:15 AM,35.6,30.2,81,29.61,10.0,North,11.5,-,N/A,,Clear,350,2013-02-18 12:15:00
6:35 AM,35.6,30.2,81,29.64,10.0,North,10.4,-,N/A,,Clear,350,2013-02-18 12:35:00
6:55 AM,35.6,30.2,81,29.66,10.0,North,6.9,-,N/A,,Clear,350,2013-02-18 12:55:00
7:15 AM,33.8,30.2,87,29.66,10.0,NNW,10.4,-,N/A,,Clear,340,2013-02-18 13:15:00
7:35 AM,33.8,30.2,87,29.67,10.0,NNW,9.2,-,N/A,,Clear,340,2013-02-18 13:35:00
7:55 AM,33.8,30.2,87,29.68,10.0,NNW,12.7,-,N/A,,Clear,340,2013-02-18 13:55:00
8:15 AM,35.6,30.2,81,29.69,10.0,NNW,13.8,-,N/A,,Clear,340,2013-02-18 14:15:00
8:35 AM,37.4,30.2,75,29.69,10.0,North,10.4,-,N/A,,Mostly Cloudy,350,2013-02-18 14:35:00
8:55 AM,37.4,30.2,75,29.69,10.0,NNW,10.4,-,N/A,,Overcast,340,2013-02-18 14:55:00
9:15 AM,37.4,30.2,75,29.70,10.0,NNW,11.5,-,N/A,,Overcast,330,2013-02-18 15:15:00
9:35 AM,37.4,30.2,75,29.71,10.0,NW,12.7,-,N/A,,Overcast,320,2013-02-18 15:35:00
9:55 AM,37.4,30.2,75,29.71,10.0,NNW,17.3,26.5,N/A,,Overcast,330,2013-02-18 15:55:00
10:35 AM,37.4,28.4,70,29.72,10.0,NNW,23.0,32.2,N/A,,Overcast,340,2013-02-18 16:35:00
10:55 AM,35.6,28.4,75,29.73,10.0,NNW,20.7,33.4,N/A,,Overcast,340,2013-02-18 16:55:00
11:15 AM,33.8,26.6,75,29.75,10.0,NW,24.2,31.1,N/A,,Overcast,320,2013-02-18 17:15:00
11:35 AM,30.2,26.6,86,29.77,1.2,NW,26.5,32.2,N/A,Snow,Light Snow,320,2013-02-18 17:35:00
11:55 AM,30.2,26.6,86,29.78,1.5,NNW,25.3,31.1,N/A,Snow,Light Snow,330,2013-02-18 17:55:00
12:15 PM,28.4,21.2,74,29.79,4.0,NW,25.3,31.1,N/A,Snow,Light Snow,320,2013-02-18 18:15:00
12:35 PM,30.2,21.2,69,29.79,10.0,NW,19.6,31.1,N/A,,Scattered Clouds,320,2013-02-18 18:35:00
12:55 PM,30.2,21.2,69,29.79,10.0,NW,24.2,31.1,N/A,,Scattered Clouds,310,2013-02-18 18:55:00
1:15 PM,30.2,21.2,69,29.79,10.0,NW,24.2,32.2,N/A,,Scattered Clouds,320,2013-02-18 19:15:00
1:35 PM,30.2,21.2,69,29.80,10.0,NW,23.0,36.8,N/A,,Scattered Clouds,320,2013-02-18 19:35:00
1:55 PM,30.2,19.4,64,29.81,10.0,NW,23.0,33.4,N/A,,Scattered Clouds,320,2013-02-18 19:55:00
2:15 PM,30.2,17.6,60,29.82,10.0,NW,25.3,34.5,N/A,,Scattered Clouds,320,2013-02-18 20:15:00
2:35 PM,30.2,17.6,60,29.83,10.0,NW,25.3,32.2,N/A,,Scattered Clouds,310,2013-02-18 20:35:00
2:55 PM,28.4,15.8,59,29.84,10.0,NW,27.6,42.6,N/A,,Overcast,310,2013-02-18 20:55:00
3:15 PM,28.4,15.8,59,29.84,10.0,NW,29.9,40.3,N/A,,Overcast,310,2013-02-18 21:15:00
3:35 PM,28.4,15.8,59,29.85,10.0,NW,28.8,38.0,N/A,,Overcast,310,2013-02-18 21:35:00
3:55 PM,28.4,14.0,55,29.86,10.0,NW,27.6,35.7,N/A,,Scattered Clouds,310,2013-02-18 21:55:00
4:15 PM,28.4,12.2,51,29.86,10.0,NW,29.9,39.1,N/A,,Scattered Clouds,310,2013-02-18 22:15:00
4:35 PM,28.4,12.2,51,29.86,10.0,NW,31.1,41.4,N/A,,Mostly Cloudy,310,2013-02-18 22:35:00
4:55 PM,26.6,12.2,55,29.87,10.0,NW,28.8,35.7,N/A,,Scattered Clouds,320,2013-02-18 22:55:00
5:15 PM,26.6,12.2,55,29.89,10.0,NW,25.3,32.2,N/A,,Scattered Clouds,320,2013-02-18 23:15:00
5:35 PM,24.8,12.2,59,29.90,10.0,NW,21.9,33.4,N/A,,Scattered Clouds,320,2013-02-18 23:35:00
5:55 PM,24.8,12.2,59,29.91,10.0,NW,26.5,35.7,N/A,,Clear,310,2013-02-18 23:55:00
6:15 PM,23.0,12.2,63,29.92,10.0,NW,21.9,31.1,N/A,,Clear,320,2013-02-19 00:15:00
6:35 PM,21.2,12.2,68,29.94,10.0,NW,23.0,34.5,N/A,,Clear,310,2013-02-19 00:35:00
6:55 PM,21.2,12.2,68,29.95,10.0,NW,20.7,25.3,N/A,,Clear,310,2013-02-19 00:55:00
7:15 PM,21.2,12.2,68,29.96,10.0,NW,20.7,29.9,N/A,,Clear,310,2013-02-19 01:15:00
7:35 PM,21.2,10.4,63,29.97,10.0,NW,26.5,33.4,N/A,,Clear,310,2013-02-19 01:35:00
7:55 PM,19.4,10.4,68,29.98,10.0,NW,23.0,32.2,N/A,,Clear,320,2013-02-19 01:55:00
8:15 PM,19.4,10.4,68,29.98,10.0,NW,24.2,29.9,N/A,,Clear,320,2013-02-19 02:15:00
8:35 PM,19.4,10.4,68,29.99,10.0,NW,18.4,24.2,N/A,,Scattered Clouds,310,2013-02-19 02:35:00
8:55 PM,17.6,10.4,73,30.00,10.0,NW,21.9,27.6,N/A,,Scattered Clouds,320,2013-02-19 02:55:00
9:15 PM,17.6,8.6,68,30.01,10.0,NW,19.6,25.3,N/A,,Clear,320,2013-02-19 03:15:00
9:35 PM,17.6,8.6,68,30.01,10.0,NW,17.3,-,N/A,,Clear,320,2013-02-19 03:35:00
9:55 PM,17.6,8.6,68,30.01,10.0,NW,16.1,23.0,N/A,,Clear,310,2013-02-19 03:55:00
10:15 PM,17.6,8.6,68,30.02,10.0,NW,19.6,25.3,N/A,,Clear,310,2013-02-19 04:15:00
10:35 PM,17.6,8.6,68,30.03,10.0,NW,19.6,27.6,N/A,,Clear,310,2013-02-19 04:35:00
10:55 PM,15.8,8.6,73,30.03,10.0,NW,20.7,27.6,N/A,,Clear,310,2013-02-19 04:55:00
11:15 PM,15.8,8.6,73,30.04,10.0,NW,16.1,26.5,N/A,,Clear,310,2013-02-19 05:15:00
11:35 PM,15.8,6.8,68,30.05,10.0,NW,26.5,32.2,N/A,,Scattered Clouds,310,2013-02-19 05:35:00
11:55 PM,15.8,6.8,68,30.06,10.0,NW,26.5,31.1,N/A,,Scattered Clouds,310,2013-02-19 05:55:00